sat.trackr.live / text

‹ back to catalog

STARLINK-5983

NORAD 57224 · 2023-094G

PAYLOAD ACTIVE UNKNOWN

§ Identity

Operator
Country
US
Launch date
2023-07-07
Launch site
AFWTR
Launch vehicle
Mass (kg)
RCS (m²)

Purposes: comms

External: N2YO · Heavens-Above · Gunter

§ Orbital elements

Epoch: 2026-09-20T18:30:51.813792Z

Period
94.27 min
Inclination
43.0042°
Eccentricity
0.0001603
Mean motion
15.27573921 rev/d
Perigee alt
482.0 km
Apogee alt
484.2 km
Semi-major
6,861.2 km
B*
3.6852e-6
RAAN
8.7506°
Arg perigee
276.0491°
Mean anomaly
84.0178°
Rev number
17,695

§ Raw data

STARLINK-59831 57224U 23094G   26263.77143303 -.00000161  00000+0  36852-5 0  99922 57224  43.0042   8.7506 0001603 276.0491  84.0178 15.27573921176958

JSON: /api/v1/satellites/57224 · /tle

For live sub-satellite position, see the globe view (requires WebGL).

§ Visibility from observer

Set your observer location to see the next 7 days of passes ≥ 10°. The values pass through the URL so the page stays shareable.

No JS? Fill the form by hand. The geolocation button needs JavaScript.